Time,TemperatureF,DewpointF,PressureIn,WindDirection,WindDirectionDegrees,WindSpeedMPH,WindSpeedGustMPH,Humidity,HourlyPrecipIn,Conditions,Clouds,dailyrainin,SolarRadiationWatts/m^2,SoftwareType,DateUTC
2013-02-03 00:11:00,24.0,23.0,-100.00,SE,133,0.0,0.0,97,0.00,,,0.21,0.000000,,2013-02-03 08:11:00,
2013-02-03 00:22:00,24.0,23.0,-100.00,SE,133,0.0,0.0,97,0.00,,,0.21,0.000000,,2013-02-03 08:22:00,
2013-02-03 00:32:00,24.0,23.0,-100.00,SE,133,0.0,0.0,97,0.00,,,0.21,0.000000,,2013-02-03 08:32:00,
2013-02-03 00:41:00,24.0,23.0,-100.00,SE,133,0.0,0.0,97,0.00,,,0.21,0.000000,,2013-02-03 08:41:00,
2013-02-03 00:51:00,24.0,23.0,-100.00,SE,133,0.0,0.0,97,0.00,,,0.21,0.000000,,2013-02-03 08:51:00,
2013-02-03 01:11:00,23.0,22.0,-100.00,NE,36,0.0,1.0,96,0.00,,,0.21,0.000000,,2013-02-03 09:11:00,
2013-02-03 01:21:00,23.0,22.0,-100.00,NE,36,0.0,1.0,96,0.00,,,0.21,0.000000,,2013-02-03 09:21:00,
2013-02-03 01:31:00,23.0,22.0,-100.00,NE,36,0.0,1.0,96,0.00,,,0.21,0.000000,,2013-02-03 09:31:00,
2013-02-03 01:41:00,23.0,22.0,-100.00,NE,36,0.0,1.0,96,0.00,,,0.21,0.000000,,2013-02-03 09:41:00,
2013-02-03 01:51:00,23.0,22.0,-100.00,NE,36,0.0,1.0,96,0.00,,,0.21,0.000000,,2013-02-03 09:51:00,
2013-02-03 01:52:00,21.0,20.0,-100.00,NE,40,0.0,1.0,95,0.00,,,0.21,0.000000,,2013-02-03 09:52:00,
2013-02-03 02:11:00,21.0,20.0,-100.00,NE,40,0.0,1.0,95,0.00,,,0.21,0.000000,,2013-02-03 10:11:00,
2013-02-03 02:21:00,21.0,20.0,-100.00,NE,40,0.0,1.0,95,0.00,,,0.21,0.000000,,2013-02-03 10:21:00,
2013-02-03 02:31:00,21.0,20.0,-100.00,NE,40,0.0,1.0,95,0.00,,,0.21,0.000000,,2013-02-03 10:31:00,
2013-02-03 02:41:00,21.0,20.0,-100.00,NE,40,0.0,1.0,95,0.00,,,0.21,0.000000,,2013-02-03 10:41:00,
2013-02-03 02:52:00,21.0,20.0,-100.00,NNE,28,0.0,1.0,94,0.00,,,0.21,0.000000,,2013-02-03 10:52:00,
2013-02-03 03:11:00,21.0,20.0,-100.00,NNE,28,0.0,1.0,94,0.00,,,0.21,0.000000,,2013-02-03 11:11:00,
2013-02-03 03:22:00,21.0,20.0,-100.00,NNE,28,0.0,1.0,94,0.00,,,0.21,0.000000,,2013-02-03 11:22:00,
2013-02-03 03:31:00,21.0,20.0,-100.00,NNE,28,0.0,1.0,94,0.00,,,0.21,0.000000,,2013-02-03 11:31:00,
2013-02-03 03:41:00,21.0,20.0,-100.00,NNE,28,0.0,1.0,94,0.00,,,0.21,0.000000,,2013-02-03 11:41:00,
2013-02-03 03:52:00,19.0,17.0,-100.00,SE,146,0.0,2.0,93,0.00,,,0.21,0.000000,,2013-02-03 11:52:00,
2013-02-03 04:11:00,19.0,17.0,-100.00,SE,146,0.0,2.0,93,0.00,,,0.21,0.000000,,2013-02-03 12:11:00,
2013-02-03 04:22:00,19.0,17.0,-100.00,SE,146,0.0,2.0,93,0.00,,,0.21,0.000000,,2013-02-03 12:22:00,
2013-02-03 04:32:00,19.0,17.0,-100.00,SE,146,0.0,2.0,93,0.00,,,0.21,0.000000,,2013-02-03 12:32:00,
2013-02-03 04:42:00,19.0,17.0,-100.00,SE,146,0.0,2.0,93,0.00,,,0.21,0.000000,,2013-02-03 12:42:00,
2013-02-03 04:52:00,18.0,16.0,-100.00,NE,38,0.0,2.0,92,0.00,,,0.21,0.000000,,2013-02-03 12:52:00,
2013-02-03 05:21:00,18.0,16.0,-100.00,NE,38,0.0,2.0,92,0.00,,,0.21,0.000000,,2013-02-03 13:21:00,
2013-02-03 05:32:00,18.0,16.0,-100.00,NE,38,0.0,2.0,92,0.00,,,0.21,0.000000,,2013-02-03 13:32:00,
2013-02-03 05:41:00,18.0,16.0,-100.00,NE,38,0.0,2.0,92,0.00,,,0.21,0.000000,,2013-02-03 13:41:00,
2013-02-03 05:52:00,17.0,15.0,-100.00,NE,38,0.0,1.0,92,0.00,,,0.21,0.000000,,2013-02-03 13:52:00,
2013-02-03 06:11:00,17.0,15.0,-100.00,NE,38,0.0,1.0,92,0.00,,,0.21,0.000000,,2013-02-03 14:11:00,
2013-02-03 06:21:00,17.0,15.0,-100.00,NE,38,0.0,1.0,92,0.00,,,0.21,0.000000,,2013-02-03 14:21:00,
2013-02-03 06:32:00,17.0,15.0,-100.00,NE,38,0.0,1.0,92,0.00,,,0.21,0.000000,,2013-02-03 14:32:00,
2013-02-03 06:42:00,17.0,15.0,-100.00,NE,38,0.0,1.0,92,0.00,,,0.21,0.000000,,2013-02-03 14:42:00,
2013-02-03 07:11:00,16.0,14.0,-100.00,NNE,30,1.0,2.0,92,0.00,,,0.21,0.000000,,2013-02-03 15:11:00,
2013-02-03 07:22:00,16.0,14.0,-100.00,NNE,30,1.0,2.0,92,0.00,,,0.21,0.000000,,2013-02-03 15:22:00,
2013-02-03 07:32:00,16.0,14.0,-100.00,NNE,30,1.0,2.0,92,0.00,,,0.21,0.000000,,2013-02-03 15:32:00,
2013-02-03 07:41:00,16.0,14.0,-100.00,NNE,30,1.0,2.0,92,0.00,,,0.21,0.000000,,2013-02-03 15:41:00,
2013-02-03 07:51:00,16.0,14.0,-100.00,NNE,30,1.0,2.0,92,0.00,,,0.21,0.000000,,2013-02-03 15:51:00,
2013-02-03 07:52:00,17.0,15.0,-100.00,SSW,196,0.0,1.0,91,0.00,,,0.21,10.000000,,2013-02-03 15:52:00,
2013-02-03 08:21:00,17.0,15.0,-100.00,SSW,196,0.0,1.0,91,0.00,,,0.21,10.000000,,2013-02-03 16:21:00,
2013-02-03 08:32:00,17.0,15.0,-100.00,SSW,196,0.0,1.0,91,0.00,,,0.21,10.000000,,2013-02-03 16:32:00,
2013-02-03 08:41:00,17.0,15.0,-100.00,SSW,196,0.0,1.0,91,0.00,,,0.21,10.000000,,2013-02-03 16:41:00,
2013-02-03 08:52:00,18.0,16.0,-100.00,ESE,122,0.0,2.0,91,0.00,,,0.21,18.000000,,2013-02-03 16:52:00,
2013-02-03 09:11:00,18.0,16.0,-100.00,ESE,122,0.0,2.0,91,0.00,,,0.21,18.000000,,2013-02-03 17:11:00,
2013-02-03 09:21:00,18.0,16.0,-100.00,ESE,122,0.0,2.0,91,0.00,,,0.21,18.000000,,2013-02-03 17:21:00,
2013-02-03 09:31:00,18.0,16.0,-100.00,ESE,122,0.0,2.0,91,0.00,,,0.21,18.000000,,2013-02-03 17:31:00,
2013-02-03 09:41:00,18.0,16.0,-100.00,ESE,122,0.0,2.0,91,0.00,,,0.21,18.000000,,2013-02-03 17:41:00,
2013-02-03 10:23:00,24.0,22.0,-100.00,SSE,166,0.0,2.0,92,0.00,,,0.21,62.000000,,2013-02-03 18:23:00,
2013-02-03 10:32:00,24.0,22.0,-100.00,SSE,166,0.0,2.0,92,0.00,,,0.21,62.000000,,2013-02-03 18:32:00,
2013-02-03 10:41:00,24.0,22.0,-100.00,SSE,166,0.0,2.0,92,0.00,,,0.21,62.000000,,2013-02-03 18:41:00,
2013-02-03 10:51:00,24.0,22.0,-100.00,SSE,166,0.0,2.0,92,0.00,,,0.21,62.000000,,2013-02-03 18:51:00,
2013-02-03 11:11:00,29.0,28.0,-100.00,NNE,16,0.0,1.0,95,0.00,,,0.21,36.000000,,2013-02-03 19:11:00,
2013-02-03 11:21:00,29.0,28.0,-100.00,NNE,16,0.0,1.0,95,0.00,,,0.21,36.000000,,2013-02-03 19:21:00,
2013-02-03 11:31:00,29.0,28.0,-100.00,NNE,16,0.0,1.0,95,0.00,,,0.21,36.000000,,2013-02-03 19:31:00,
2013-02-03 11:41:00,29.0,28.0,-100.00,NNE,16,0.0,1.0,95,0.00,,,0.21,36.000000,,2013-02-03 19:41:00,
2013-02-03 11:51:00,29.0,28.0,-100.00,NNE,16,0.0,1.0,95,0.00,,,0.21,36.000000,,2013-02-03 19:51:00,
2013-02-03 11:52:00,39.0,35.0,-100.00,NE,36,0.0,2.0,86,0.00,,,0.19,369.000000,,2013-02-03 19:52:00,
2013-02-03 12:12:00,39.0,35.0,-100.00,NE,36,0.0,2.0,86,0.00,,,0.19,369.000000,,2013-02-03 20:12:00,
2013-02-03 12:21:00,39.0,35.0,-100.00,NE,36,0.0,2.0,86,0.00,,,0.19,369.000000,,2013-02-03 20:21:00,
2013-02-03 12:32:00,39.0,35.0,-100.00,NE,36,0.0,2.0,86,0.00,,,0.19,369.000000,,2013-02-03 20:32:00,
2013-02-03 12:42:00,39.0,35.0,-100.00,NE,36,0.0,2.0,86,0.00,,,0.19,369.000000,,2013-02-03 20:42:00,
2013-02-03 13:11:00,46.0,37.0,-100.00,SE,124,0.0,4.0,70,0.00,,,0.13,464.000000,,2013-02-03 21:11:00,
2013-02-03 13:21:00,46.0,37.0,-100.00,SE,124,0.0,4.0,70,0.00,,,0.13,464.000000,,2013-02-03 21:21:00,
2013-02-03 13:32:00,46.0,37.0,-100.00,SE,124,0.0,4.0,70,0.00,,,0.13,464.000000,,2013-02-03 21:32:00,
2013-02-03 13:42:00,46.0,37.0,-100.00,SE,124,0.0,4.0,70,0.00,,,0.13,464.000000,,2013-02-03 21:42:00,
2013-02-03 13:51:00,46.0,37.0,-100.00,SE,124,0.0,4.0,70,0.00,,,0.13,464.000000,,2013-02-03 21:51:00,
2013-02-03 14:21:00,43.0,35.0,-100.00,North,4,0.0,7.0,74,0.00,,,0.08,326.000000,,2013-02-03 22:21:00,
2013-02-03 14:32:00,43.0,35.0,-100.00,North,4,0.0,7.0,74,0.00,,,0.08,326.000000,,2013-02-03 22:32:00,
2013-02-03 14:41:00,43.0,35.0,-100.00,North,4,0.0,7.0,74,0.00,,,0.08,326.000000,,2013-02-03 22:41:00,
2013-02-03 14:51:00,43.0,35.0,-100.00,North,4,0.0,7.0,74,0.00,,,0.08,326.000000,,2013-02-03 22:51:00,
2013-02-03 14:52:00,44.0,34.0,-100.00,NW,308,0.0,4.0,69,0.00,,,0.01,299.000000,,2013-02-03 22:52:00,
2013-02-03 15:22:00,44.0,34.0,-100.00,NW,308,0.0,4.0,69,0.00,,,0.01,299.000000,,2013-02-03 23:22:00,
2013-02-03 15:32:00,44.0,34.0,-100.00,NW,308,0.0,4.0,69,0.00,,,0.01,299.000000,,2013-02-03 23:32:00,
2013-02-03 15:41:00,44.0,34.0,-100.00,NW,308,0.0,4.0,69,0.00,,,0.01,299.000000,,2013-02-03 23:41:00,
2013-02-03 16:11:00,36.0,33.0,-100.00,North,358,0.0,3.0,90,0.00,,,0.00,125.000000,,2013-02-04 00:11:00,
2013-02-03 16:22:00,36.0,33.0,-100.00,North,358,0.0,3.0,90,0.00,,,0.00,125.000000,,2013-02-04 00:22:00,
2013-02-03 16:31:00,36.0,33.0,-100.00,North,358,0.0,3.0,90,0.00,,,0.00,125.000000,,2013-02-04 00:31:00,
2013-02-03 16:41:00,36.0,33.0,-100.00,North,358,0.0,3.0,90,0.00,,,0.00,125.000000,,2013-02-04 00:41:00,
2013-02-03 16:51:00,36.0,33.0,-100.00,North,358,0.0,3.0,90,0.00,,,0.00,125.000000,,2013-02-04 00:51:00,
2013-02-03 17:11:00,32.0,31.0,-100.00,NNE,16,1.0,4.0,96,0.00,,,0.00,25.000000,,2013-02-04 01:11:00,
2013-02-03 17:21:00,32.0,31.0,-100.00,NNE,16,1.0,4.0,96,0.00,,,0.00,25.000000,,2013-02-04 01:21:00,
2013-02-03 17:31:00,32.0,31.0,-100.00,NNE,16,1.0,4.0,96,0.00,,,0.00,25.000000,,2013-02-04 01:31:00,
2013-02-03 17:41:00,32.0,31.0,-100.00,NNE,16,1.0,4.0,96,0.00,,,0.00,25.000000,,2013-02-04 01:41:00,
2013-02-03 17:51:00,32.0,31.0,-100.00,NNE,16,1.0,4.0,96,0.00,,,0.00,25.000000,,2013-02-04 01:51:00,
2013-02-03 17:52:00,30.0,29.0,-100.00,NNE,13,0.0,2.0,98,0.00,,,0.00,0.000000,,2013-02-04 01:52:00,
2013-02-03 18:11:00,30.0,29.0,-100.00,NNE,13,0.0,2.0,98,0.00,,,0.00,0.000000,,2013-02-04 02:11:00,
2013-02-03 18:21:00,30.0,29.0,-100.00,NNE,13,0.0,2.0,98,0.00,,,0.00,0.000000,,2013-02-04 02:21:00,
2013-02-03 18:31:00,30.0,29.0,-100.00,NNE,13,0.0,2.0,98,0.00,,,0.00,0.000000,,2013-02-04 02:31:00,
2013-02-03 18:41:00,30.0,29.0,-100.00,NNE,13,0.0,2.0,98,0.00,,,0.00,0.000000,,2013-02-04 02:41:00,
2013-02-03 19:11:00,29.0,29.0,-100.00,NNE,13,0.0,0.0,98,0.00,,,0.00,0.000000,,2013-02-04 03:11:00,
2013-02-03 19:21:00,29.0,29.0,-100.00,NNE,13,0.0,0.0,98,0.00,,,0.00,0.000000,,2013-02-04 03:21:00,
2013-02-03 19:31:00,29.0,29.0,-100.00,NNE,13,0.0,0.0,98,0.00,,,0.00,0.000000,,2013-02-04 03:31:00,
2013-02-03 19:41:00,29.0,29.0,-100.00,NNE,13,0.0,0.0,98,0.00,,,0.00,0.000000,,2013-02-04 03:41:00,
2013-02-03 19:51:00,29.0,29.0,-100.00,NNE,13,0.0,0.0,98,0.00,,,0.00,0.000000,,2013-02-04 03:51:00,
2013-02-03 19:52:00,29.0,29.0,-100.00,NNE,15,0.0,2.0,99,0.00,,,0.00,0.000000,,2013-02-04 03:52:00,
2013-02-03 20:11:00,29.0,29.0,-100.00,NNE,15,0.0,2.0,99,0.00,,,0.00,0.000000,,2013-02-04 04:11:00,
2013-02-03 20:21:00,29.0,29.0,-100.00,NNE,15,0.0,2.0,99,0.00,,,0.00,0.000000,,2013-02-04 04:21:00,
2013-02-03 20:31:00,29.0,29.0,-100.00,NNE,15,0.0,2.0,99,0.00,,,0.00,0.000000,,2013-02-04 04:31:00,
2013-02-03 20:41:00,29.0,29.0,-100.00,NNE,15,0.0,2.0,99,0.00,,,0.00,0.000000,,2013-02-04 04:41:00,
2013-02-03 21:22:00,28.0,28.0,-100.00,NNE,15,0.0,0.0,99,0.00,,,0.00,0.000000,,2013-02-04 05:22:00,
2013-02-03 21:33:00,28.0,28.0,-100.00,NNE,15,0.0,0.0,99,0.00,,,0.00,0.000000,,2013-02-04 05:33:00,
2013-02-03 21:42:00,28.0,28.0,-100.00,NNE,15,0.0,0.0,99,0.00,,,0.00,0.000000,,2013-02-04 05:42:00,
2013-02-03 21:51:00,28.0,28.0,-100.00,NNE,15,0.0,0.0,99,0.00,,,0.00,0.000000,,2013-02-04 05:51:00,
2013-02-03 22:11:00,28.0,28.0,-100.00,NNE,15,0.0,0.0,99,0.00,,,0.00,0.000000,,2013-02-04 06:11:00,
2013-02-03 22:21:00,28.0,28.0,-100.00,NNE,15,0.0,0.0,99,0.00,,,0.00,0.000000,,2013-02-04 06:21:00,
2013-02-03 22:31:00,28.0,28.0,-100.00,NNE,15,0.0,0.0,99,0.00,,,0.00,0.000000,,2013-02-04 06:31:00,
2013-02-03 22:41:00,28.0,28.0,-100.00,NNE,15,0.0,0.0,99,0.00,,,0.00,0.000000,,2013-02-04 06:41:00,
2013-02-03 22:51:00,28.0,28.0,-100.00,NNE,15,0.0,0.0,99,0.00,,,0.00,0.000000,,2013-02-04 06:51:00,
2013-02-03 23:11:00,28.0,28.0,-100.00,NNW,338,0.0,1.0,99,0.00,,,0.00,0.000000,,2013-02-04 07:11:00,
2013-02-03 23:21:00,28.0,28.0,-100.00,NNW,338,0.0,1.0,99,0.00,,,0.00,0.000000,,2013-02-04 07:21:00,
2013-02-03 23:31:00,28.0,28.0,-100.00,NNW,338,0.0,1.0,99,0.00,,,0.00,0.000000,,2013-02-04 07:31:00,
2013-02-03 23:41:00,28.0,28.0,-100.00,NNW,338,0.0,1.0,99,0.00,,,0.00,0.000000,,2013-02-04 07:41:00,
2013-02-03 23:51:00,28.0,28.0,-100.00,NNW,338,0.0,1.0,99,0.00,,,0.00,0.000000,,2013-02-04 07:51:00,
2013-02-03 23:52:00,28.0,28.0,-100.00,NNW,338,0.0,0.0,99,0.00,,,0.00,0.000000,,2013-02-04 07:52:00,